Time,TemperatureF,DewpointF,PressureIn,WindDirection,WindDirectionDegrees,WindSpeedMPH,WindSpeedGustMPH,Humidity,HourlyPrecipIn,Conditions,Clouds,dailyrainin,SolarRadiationWatts/m^2,SoftwareType,DateUTC
2013-08-29 00:03:00,76.0,73.0,-100.00,West,279,3.0,6.0,90,0.02,,,0.88,56.000000,,2013-08-29 00:03:00,
2013-08-29 00:12:00,76.0,73.0,-100.00,West,279,3.0,6.0,90,0.02,,,0.88,56.000000,,2013-08-29 00:12:00,
2013-08-29 01:04:00,75.0,73.0,-100.00,WNW,283,3.0,8.0,93,0.04,,,0.92,1.000000,,2013-08-29 01:04:00,
2013-08-29 01:13:00,75.0,73.0,-100.00,WNW,283,3.0,8.0,93,0.04,,,0.92,1.000000,,2013-08-29 01:13:00,
2013-08-29 01:42:00,73.0,71.0,-100.00,East,89,3.0,9.0,93,0.07,,,0.99,0.000000,,2013-08-29 01:42:00,
2013-08-29 01:52:00,73.0,71.0,-100.00,East,89,3.0,9.0,93,0.07,,,0.99,0.000000,,2013-08-29 01:52:00,
2013-08-29 02:03:00,73.0,71.0,-100.00,East,89,3.0,9.0,93,0.07,,,0.99,0.000000,,2013-08-29 02:03:00,
2013-08-29 02:12:00,73.0,71.0,-100.00,East,89,3.0,9.0,93,0.07,,,0.99,0.000000,,2013-08-29 02:12:00,
2013-08-29 02:52:00,73.0,72.0,-100.00,West,260,2.0,4.0,96,0.00,,,0.99,0.000000,,2013-08-29 02:52:00,
2013-08-29 03:02:00,73.0,72.0,-100.00,West,260,2.0,4.0,96,0.00,,,0.99,0.000000,,2013-08-29 03:02:00,
2013-08-29 03:12:00,73.0,72.0,-100.00,West,260,2.0,4.0,96,0.00,,,0.99,0.000000,,2013-08-29 03:12:00,
2013-08-29 03:17:00,74.0,72.0,-100.00,WSW,254,3.0,6.0,94,0.00,,,0.99,0.000000,,2013-08-29 03:17:00,
2013-08-29 03:45:00,74.0,72.0,-100.00,WSW,254,3.0,6.0,94,0.00,,,0.99,0.000000,,2013-08-29 03:45:00,
2013-08-29 03:57:00,74.0,72.0,-100.00,WSW,254,3.0,6.0,94,0.00,,,0.99,0.000000,,2013-08-29 03:57:00,
2013-08-29 04:08:00,74.0,72.0,-100.00,WSW,254,3.0,6.0,94,0.00,,,0.99,0.000000,,2013-08-29 04:08:00,
2013-08-29 04:46:00,74.0,72.0,-100.00,West,267,3.0,7.0,94,0.00,,,0.99,0.000000,,2013-08-29 04:46:00,
2013-08-29 04:54:00,74.0,72.0,-100.00,West,267,3.0,7.0,94,0.00,,,0.99,0.000000,,2013-08-29 04:54:00,
2013-08-29 05:05:00,74.0,72.0,-100.00,West,267,3.0,7.0,94,0.00,,,0.99,0.000000,,2013-08-29 05:05:00,
2013-08-29 05:14:00,74.0,72.0,-100.00,West,267,3.0,7.0,94,0.00,,,0.99,0.000000,,2013-08-29 05:14:00,
2013-08-29 05:42:00,74.0,72.0,-100.00,West,265,3.0,7.0,92,0.00,,,0.99,0.000000,,2013-08-29 05:42:00,
2013-08-29 05:52:00,74.0,72.0,-100.00,West,265,3.0,7.0,92,0.00,,,0.99,0.000000,,2013-08-29 05:52:00,
2013-08-29 06:02:00,74.0,72.0,-100.00,West,265,3.0,7.0,92,0.00,,,0.99,0.000000,,2013-08-29 06:02:00,
2013-08-29 06:12:00,74.0,72.0,-100.00,West,265,3.0,7.0,92,0.00,,,0.99,0.000000,,2013-08-29 06:12:00,
2013-08-29 06:43:00,73.0,71.0,-100.00,West,267,4.0,6.0,93,0.07,,,1.06,0.000000,,2013-08-29 06:43:00,
2013-08-29 06:52:00,73.0,71.0,-100.00,West,267,4.0,6.0,93,0.07,,,1.06,0.000000,,2013-08-29 06:52:00,
2013-08-29 07:01:00,73.0,71.0,-100.00,West,267,4.0,6.0,93,0.07,,,1.06,0.000000,,2013-08-29 07:01:00,
2013-08-29 07:12:00,73.0,71.0,-100.00,West,267,4.0,6.0,93,0.07,,,1.06,0.000000,,2013-08-29 07:12:00,
2013-08-29 07:42:00,73.0,71.0,-100.00,West,265,2.0,10.0,93,0.00,,,1.06,0.000000,,2013-08-29 07:42:00,
2013-08-29 07:53:00,73.0,71.0,-100.00,West,265,2.0,10.0,93,0.00,,,1.06,0.000000,,2013-08-29 07:53:00,
2013-08-29 08:02:00,73.0,71.0,-100.00,West,265,2.0,10.0,93,0.00,,,1.06,0.000000,,2013-08-29 08:02:00,
2013-08-29 08:12:00,73.0,71.0,-100.00,West,265,2.0,10.0,93,0.00,,,1.06,0.000000,,2013-08-29 08:12:00,
2013-08-29 08:42:00,73.0,71.0,-100.00,West,267,1.0,4.0,93,0.00,,,1.06,0.000000,,2013-08-29 08:42:00,
2013-08-29 08:52:00,73.0,71.0,-100.00,West,267,1.0,4.0,93,0.00,,,1.06,0.000000,,2013-08-29 08:52:00,
2013-08-29 09:01:00,73.0,71.0,-100.00,West,267,1.0,4.0,93,0.00,,,1.06,0.000000,,2013-08-29 09:01:00,
2013-08-29 09:12:00,73.0,71.0,-100.00,West,267,1.0,4.0,93,0.00,,,1.06,0.000000,,2013-08-29 09:12:00,
2013-08-29 09:43:00,72.0,70.0,-100.00,North,352,1.0,5.0,94,0.00,,,-99.99,0.000000,,2013-08-29 09:43:00,
2013-08-29 09:55:00,72.0,70.0,-100.00,North,352,1.0,5.0,94,0.00,,,-99.99,0.000000,,2013-08-29 09:55:00,
2013-08-29 10:06:00,72.0,70.0,-100.00,North,352,1.0,5.0,94,0.00,,,-99.99,0.000000,,2013-08-29 10:06:00,
2013-08-29 10:15:00,72.0,70.0,-100.00,North,352,1.0,5.0,94,0.00,,,-99.99,0.000000,,2013-08-29 10:15:00,
2013-08-29 10:43:00,72.0,70.0,-100.00,NNE,17,2.0,5.0,94,0.00,,,1.06,0.000000,,2013-08-29 10:43:00,
2013-08-29 10:53:00,72.0,70.0,-100.00,NNE,17,2.0,5.0,94,0.00,,,1.06,0.000000,,2013-08-29 10:53:00,
2013-08-29 11:03:00,72.0,70.0,-100.00,NNE,17,2.0,5.0,94,0.00,,,1.06,0.000000,,2013-08-29 11:03:00,
2013-08-29 11:12:00,72.0,70.0,-100.00,NNE,17,2.0,5.0,94,0.00,,,1.06,0.000000,,2013-08-29 11:12:00,
2013-08-29 11:42:00,72.0,70.0,-100.00,ENE,77,1.0,5.0,93,0.00,,,1.05,2.000000,,2013-08-29 11:42:00,
2013-08-29 11:52:00,72.0,70.0,-100.00,ENE,77,1.0,5.0,93,0.00,,,1.05,2.000000,,2013-08-29 11:52:00,
2013-08-29 12:02:00,72.0,70.0,-100.00,ENE,77,1.0,5.0,93,0.00,,,1.05,2.000000,,2013-08-29 12:02:00,
2013-08-29 12:12:00,72.0,70.0,-100.00,ENE,77,1.0,5.0,93,0.00,,,1.05,2.000000,,2013-08-29 12:12:00,
2013-08-29 12:42:00,72.0,70.0,-100.00,NNE,23,1.0,3.0,92,0.00,,,1.05,40.000000,,2013-08-29 12:42:00,
2013-08-29 12:52:00,72.0,70.0,-100.00,NNE,23,1.0,3.0,92,0.00,,,1.05,40.000000,,2013-08-29 12:52:00,
2013-08-29 13:02:00,72.0,70.0,-100.00,NNE,23,1.0,3.0,92,0.00,,,1.05,40.000000,,2013-08-29 13:02:00,
2013-08-29 13:12:00,72.0,70.0,-100.00,NNE,23,1.0,3.0,92,0.00,,,1.05,40.000000,,2013-08-29 13:12:00,
2013-08-29 13:42:00,73.0,70.0,-100.00,NE,46,2.0,5.0,90,0.00,,,1.05,80.000000,,2013-08-29 13:42:00,
2013-08-29 13:52:00,73.0,70.0,-100.00,NE,46,2.0,5.0,90,0.00,,,1.05,80.000000,,2013-08-29 13:52:00,
2013-08-29 14:02:00,73.0,70.0,-100.00,NE,46,2.0,5.0,90,0.00,,,1.05,80.000000,,2013-08-29 14:02:00,
2013-08-29 14:11:00,73.0,70.0,-100.00,NE,46,2.0,5.0,90,0.00,,,1.05,80.000000,,2013-08-29 14:11:00,
2013-08-29 14:42:00,75.0,71.0,-100.00,NNE,33,2.0,5.0,86,0.00,,,1.05,144.000000,,2013-08-29 14:42:00,
2013-08-29 14:52:00,75.0,71.0,-100.00,NNE,33,2.0,5.0,86,0.00,,,1.05,144.000000,,2013-08-29 14:52:00,
2013-08-29 15:02:00,75.0,71.0,-100.00,NNE,33,2.0,5.0,86,0.00,,,1.05,144.000000,,2013-08-29 15:02:00,
2013-08-29 15:12:00,75.0,71.0,-100.00,NNE,33,2.0,5.0,86,0.00,,,1.05,144.000000,,2013-08-29 15:12:00,
2013-08-29 15:43:00,77.0,70.0,-100.00,NNE,12,3.0,7.0,79,0.00,,,1.05,261.000000,,2013-08-29 15:43:00,
2013-08-29 15:53:00,77.0,70.0,-100.00,NNE,12,3.0,7.0,79,0.00,,,1.05,261.000000,,2013-08-29 15:53:00,
2013-08-29 16:05:00,77.0,70.0,-100.00,NNE,12,3.0,7.0,79,0.00,,,1.05,261.000000,,2013-08-29 16:05:00,
2013-08-29 16:13:00,77.0,70.0,-100.00,NNE,12,3.0,7.0,79,0.00,,,1.05,261.000000,,2013-08-29 16:13:00,
2013-08-29 16:43:00,82.0,71.0,-100.00,West,273,2.0,9.0,69,0.00,,,1.05,598.000000,,2013-08-29 16:43:00,
2013-08-29 16:54:00,82.0,71.0,-100.00,West,273,2.0,9.0,69,0.00,,,1.05,598.000000,,2013-08-29 16:54:00,
2013-08-29 17:04:00,82.0,71.0,-100.00,West,273,2.0,9.0,69,0.00,,,1.05,598.000000,,2013-08-29 17:04:00,
2013-08-29 17:13:00,82.0,71.0,-100.00,West,273,2.0,9.0,69,0.00,,,1.05,598.000000,,2013-08-29 17:13:00,
2013-08-29 17:44:00,81.0,67.0,-100.00,North,2,4.0,8.0,62,0.00,,,1.05,677.000000,,2013-08-29 17:44:00,
2013-08-29 17:53:00,81.0,67.0,-100.00,North,2,4.0,8.0,62,0.00,,,1.05,677.000000,,2013-08-29 17:53:00,
2013-08-29 18:02:00,81.0,67.0,-100.00,North,2,4.0,8.0,62,0.00,,,1.05,677.000000,,2013-08-29 18:02:00,
2013-08-29 18:12:00,81.0,67.0,-100.00,North,2,4.0,8.0,62,0.00,,,1.05,677.000000,,2013-08-29 18:12:00,
2013-08-29 18:42:00,86.0,67.0,-100.00,ENE,61,3.0,9.0,54,0.00,,,1.05,758.000000,,2013-08-29 18:42:00,
2013-08-29 18:52:00,86.0,67.0,-100.00,ENE,61,3.0,9.0,54,0.00,,,1.05,758.000000,,2013-08-29 18:52:00,
2013-08-29 19:01:00,86.0,67.0,-100.00,ENE,61,3.0,9.0,54,0.00,,,1.05,758.000000,,2013-08-29 19:01:00,
2013-08-29 19:11:00,86.0,67.0,-100.00,ENE,61,3.0,9.0,54,0.00,,,1.05,758.000000,,2013-08-29 19:11:00,
2013-08-29 19:42:00,86.0,69.0,-100.00,NNE,27,4.0,8.0,57,0.00,,,1.05,627.000000,,2013-08-29 19:42:00,
2013-08-29 19:53:00,86.0,69.0,-100.00,NNE,27,4.0,8.0,57,0.00,,,1.05,627.000000,,2013-08-29 19:53:00,
2013-08-29 20:02:00,86.0,69.0,-100.00,NNE,27,4.0,8.0,57,0.00,,,1.05,627.000000,,2013-08-29 20:02:00,
2013-08-29 20:13:00,86.0,69.0,-100.00,NNE,27,4.0,8.0,57,0.00,,,1.05,627.000000,,2013-08-29 20:13:00,
2013-08-29 20:42:00,87.0,68.0,-100.00,NNE,17,5.0,10.0,53,0.00,,,1.05,592.000000,,2013-08-29 20:42:00,
2013-08-29 20:52:00,87.0,68.0,-100.00,NNE,17,5.0,10.0,53,0.00,,,1.05,592.000000,,2013-08-29 20:52:00,
2013-08-29 21:02:00,87.0,68.0,-100.00,NNE,17,5.0,10.0,53,0.00,,,1.05,592.000000,,2013-08-29 21:02:00,
2013-08-29 21:12:00,87.0,68.0,-100.00,NNE,17,5.0,10.0,53,0.00,,,1.05,592.000000,,2013-08-29 21:12:00,
2013-08-29 21:44:00,83.0,65.0,-100.00,NE,53,4.0,10.0,54,0.00,,,0.20,384.000000,,2013-08-29 21:44:00,
2013-08-29 21:54:00,83.0,65.0,-100.00,NE,53,4.0,10.0,54,0.00,,,0.20,384.000000,,2013-08-29 21:54:00,
2013-08-29 22:04:00,83.0,65.0,-100.00,NE,53,4.0,10.0,54,0.00,,,0.20,384.000000,,2013-08-29 22:04:00,
2013-08-29 22:14:00,83.0,65.0,-100.00,NE,53,4.0,10.0,54,0.00,,,0.20,384.000000,,2013-08-29 22:14:00,
2013-08-29 22:53:00,84.0,69.0,-100.00,ENE,58,4.0,8.0,61,0.00,,,0.20,211.000000,,2013-08-29 22:53:00,
2013-08-29 23:03:00,84.0,69.0,-100.00,ENE,58,4.0,8.0,61,0.00,,,0.20,211.000000,,2013-08-29 23:03:00,
2013-08-29 23:13:00,84.0,69.0,-100.00,ENE,58,4.0,8.0,61,0.00,,,0.20,211.000000,,2013-08-29 23:13:00,
2013-08-29 23:43:00,80.0,66.0,-100.00,ENE,74,3.0,7.0,62,0.00,,,0.18,124.000000,,2013-08-29 23:43:00,
2013-08-29 23:53:00,80.0,66.0,-100.00,ENE,74,3.0,7.0,62,0.00,,,0.18,124.000000,,2013-08-29 23:53:00,